CZ-4B DEB

Satellite information

Favourite Embed

Satellite Type and Status

DEBRISIN ORBIT

Key statistics

Satellite CZ-4B DEB at a glance.

Uptime

6410

Days in orbit

Revolutions

≈ 14.4

Per day

Orbit

SSO

Sun Synchronous Orbit

Inclination

98.9

Latest

Satellite identification and parameters

Extended collection of information and parameters for CZ-4B DEB.

Object identification

Identified? True

Debris? True

Object name: CZ-4B DEB

International designator: 2008-026G

Object number (NORAD): 44592

Object ID (CCSDS): 44592

Country: PEOPLES REPUBLIC OF CHINA (PRC)

Current information (Y/N): Y

RCS size: SMALL

Orbital parameters

Period: 99.804 minutes

Inclination: 98.8811 deg

SMA: 7127.303 km

Apoapsis: 799.106 km

Periapsis: 699.231 km

RAAN: 44.4153 deg

Eccentricy: 0.00700651

Argument of periapsis: 110.8891 deg

Mean anomaly: 249.9817 deg

Mean motion: 14.42829172 rev/day

Mean motion (dot): 0.00000297 rev/day2

B* drag term: 0.00010064563 1/REarth

Two-line elements (TLE)

Creation date: Dec. 11, 2025, 7:14 p.m.

Reference frame: TEME

Reference center: EARTH

Epoch: Dec. 11, 2025, 10:21 a.m. UTC

TLE line 0: 0 CZ-4B DEB

TLE line 1: 1 44592U 08026G 25345.43170370 .00000297 00000-0 10065-3 0 9997

TLE line 2: 2 44592 98.8811 44.4153 0070065 110.8891 249.9817 14.42829172634360

Live tracking on map

Real-time ground track for satellite CZ-4B DEB.

In-orbit conjunctions

A list of the most updated potential collisions computed for object CZ-4B DEB.

Target Orbit TCA Probability of collision Miss distance Type
PICOSAT 6 SSO 2025-01-16 07:19:21 0.0003546389 672.0 (m) PAYLOAD
NOAA 16 DEB SSO 2024-11-11 12:36:52 0.0002470244 363.0 (m) DEBRIS
PEGASUS DEB LEO 2024-06-11 05:52:19 0.0001726366 66.0 (m) DEBRIS

Associated space launch

Chinese 2nd generation polar orbiting meteorological satellite

CZ-4B DEB was lifted into orbit during the mission ‘Long March 4C | Feng Yun 3A’, on board a Long March 4C space rocket.

The launch took place on May 27, 2008, 3:02 a.m. from Launch Complex 7.

For more information about the launch, click the button.

Launch to space Long March 4C | Feng Yun 3A
Long March 4C | Feng Yun 3A

Agency: N/A

Status: Launch Successful

Launch date: May 27, 2008, 3:02 a.m. UTC

Rocket: Long March 4C

Launch pad: Launch Complex 7

Location: Taiyuan Satellite Launch Center, People's Republic of China

...

Latest news about this satellite

There are no fresh news available about this satellite. Check back as we update our databases every day.


Newsletter sign-up

Weekly statistics, charts and insights to help you stay on top of the space industry.